[[{"header":{"parameterUnit":"m.s-1","parameterCategory":1,"la1":30.2991,"la2":30.254,"lo1":-89.0895,"lo2":-89.0444,"dy":0.0017,"dx":0.0017,"nx":28,"ny":28,"refTime":"2025-02-10T09:00:00:Z","depth":0,"parameterNumber":2,"parameterNumberName":"U-component_of_WINDS"},"data":[0,0,0,0,0,0,0,0,0,0,0,0,0,0,0,0,0,0,0,0,0,0,0,0,0,0,0,0,0,0,0,0,0,0,0,0,0,0,0,0,0,0,0,0,0,0,0,0,0,0,0,0,0,0,0,0,0,0,-1.6089,-1.6089,0,-1.6129,-1.613,-1.613,-1.615,-1.615,-1.615,-1.615,-1.6189,-1.6191,-1.6192,0,0,0,0,0,0,0,0,0,0,0,0,0,-1.6028,-1.6029,-1.6089,-1.6089,-1.609,-1.6129,-1.613,-1.613,-1.615,-1.615,-1.615,-1.615,-1.6189,-1.619,-1.6192,0,0,0,0,0,0,0,0,0,0,0,0,0,-1.606,-1.6029,-1.6089,-1.6105,-1.6106,-1.6129,-1.613,-1.613,-1.615,-1.615,-1.615,-1.615,-1.6189,-1.619,-1.6192,-1.6201,0,0,-1.6197,-1.6197,0,0,0,0,0,0,0,0,-1.6058,-1.6062,-1.6102,-1.6104,-1.6106,-1.6135,-1.6123,-1.6154,-1.615,-1.6133,-1.615,-1.615,-1.6171,-1.6174,-1.6182,-1.6203,-1.6205,-1.6197,-1.6198,-1.6198,-1.6199,0,0,0,0,0,0,0,-1.6056,-1.606,-1.6105,-1.6102,-1.6105,-1.6109,-1.6114,-1.6129,-1.6152,-1.6135,-1.6136,-1.6141,-1.6172,-1.618,-1.6183,-1.6205,-1.6197,-1.6198,-1.6199,-1.62,-1.6237,-1.6237,0,0,0,0,0,0,-1.6051,-1.6058,-1.6104,-1.6106,-1.6081,-1.611,-1.6115,-1.6125,-1.6152,-1.6156,-1.6141,-1.6142,-1.6177,-1.6181,-1.6184,-1.6197,-1.6198,-1.62,-1.6201,-1.6237,-1.6237,-1.6237,0,0,0,0,0,0,-1.605,-1.6055,-1.6102,-1.6083,-1.6089,-1.6111,-1.6122,-1.6126,-1.6134,-1.6156,-1.616,-1.6145,-1.6177,-1.6182,-1.6197,-1.6199,-1.6201,-1.6202,-1.6237,-1.6237,-1.6237,-1.6223,0,0,0,0,0,0,-1.6048,-1.6054,-1.6059,-1.6083,-1.609,-1.6115,-1.6122,-1.6127,-1.6137,-1.6138,-1.6161,-1.6165,-1.6178,-1.6195,-1.6199,-1.6201,-1.6203,-1.6237,-1.6237,-1.6237,-1.6223,-1.6223,-1.6222,0,0,0,0,0,-1.6046,-1.6053,-1.6059,-1.6064,-1.6096,-1.6115,-1.6119,-1.6134,-1.6137,-1.6141,-1.6155,-1.6164,-1.6198,-1.6196,-1.6201,-1.6204,-1.6237,-1.6237,-1.6237,-1.6224,-1.6223,-1.6222,0,0,0,0,0,0,-1.6028,-1.6056,-1.6063,-1.6078,-1.6094,-1.6118,-1.6124,-1.6133,-1.6148,-1.6148,-1.6166,-1.6171,-1.6185,-1.6196,-1.6193,-1.6214,-1.6218,-1.6219,-1.6207,-1.6206,-1.6205,-1.6202,-1.6205,0,0,0,0,0,-1.6026,-1.6039,-1.6063,-1.6074,-1.6082,-1.6101,-1.611,-1.6121,-1.6137,-1.6144,-1.6159,-1.6175,-1.6189,-1.6198,-1.6212,-1.6225,-1.623,-1.6229,-1.6229,-1.6228,-1.6228,-1.6236,-1.6236,-1.6237,-1.6237,-1.6237,0,0,-1.6021,-1.6039,-1.6046,-1.6071,-1.6084,-1.6098,-1.6107,-1.612,-1.613,-1.6146,-1.6161,-1.6173,-1.6191,-1.6206,-1.6212,-1.6215,-1.6229,-1.6228,-1.6227,-1.6228,-1.6236,-1.6236,-1.6236,-1.6237,-1.6237,-1.6237,0,0,-1.602,-1.6035,-1.6046,-1.6059,-1.6079,-1.6092,-1.6095,-1.6118,-1.6126,-1.6142,-1.6154,-1.6166,-1.619,-1.6203,-1.6212,-1.6216,-1.6224,-1.622,-1.6216,-1.6223,-1.6223,-1.6223,-1.6224,-1.6224,-1.622,-1.622,-1.622,0,-1.6012,-1.6033,-1.605,-1.6063,-1.6073,-1.6089,-1.61,-1.6112,-1.6135,-1.6142,-1.6145,-1.6175,-1.6189,-1.6206,-1.6207,-1.6214,-1.6217,-1.6217,-1.6222,-1.6222,-1.6222,-1.6223,-1.6224,-1.622,-1.622,-1.622,-1.622,0,-1.6022,-1.6036,-1.6043,-1.6066,-1.6077,-1.6089,-1.6107,-1.6116,-1.6126,-1.6138,-1.6154,-1.6171,-1.6189,-1.6193,-1.6203,-1.6212,-1.6213,-1.6218,-1.6223,-1.6221,-1.6223,-1.6223,-1.6219,-1.6219,-1.6219,-1.6219,0,0,-1.6011,-1.6044,-1.6046,-1.6056,-1.608,-1.6091,-1.6103,-1.6121,-1.6129,-1.6144,-1.6155,-1.6175,-1.618,-1.6191,-1.6202,-1.6208,-1.621,-1.6213,-1.6213,-1.6212,-1.6221,-1.6217,-1.6217,-1.6215,-1.6216,-1.6216,-1.6219,0,-1.6014,-1.6037,-1.6052,-1.607,-1.6083,-1.6097,-1.6108,-1.6123,-1.6135,-1.6148,-1.6161,-1.6175,-1.6181,-1.6187,-1.6194,-1.6208,-1.6212,-1.6208,-1.6225,-1.6225,-1.622,-1.6218,-1.6214,-1.6216,-1.622,-1.622,-1.622,0,-1.602,-1.6035,-1.6054,-1.6076,-1.6082,-1.6091,-1.6109,-1.6121,-1.6139,-1.6147,-1.6159,-1.617,-1.6183,-1.6186,-1.6204,-1.6201,-1.6209,-1.6217,-1.6217,-1.622,-1.6223,-1.622,-1.6218,-1.6218,-1.6221,-1.6221,-1.6221,0,-1.601,-1.6036,-1.605,-1.6059,-1.6085,-1.6091,-1.6102,-1.612,-1.6129,-1.6145,-1.6151,-1.6168,-1.6177,-1.6189,-1.6204,-1.6205,-1.622,-1.6225,-1.6227,-1.6227,-1.623,-1.623,-1.6229,-1.6235,-1.6235,-1.6235,-1.6235,0,-1.6011,-1.6021,-1.6046,-1.6055,-1.6067,-1.6085,-1.6096,-1.6108,-1.6124,-1.6135,-1.6149,-1.6159,-1.6178,-1.619,-1.6202,-1.6215,-1.6219,-1.6226,-1.6229,-1.6224,-1.6224,-1.623,-1.623,-1.6235,-1.6235,-1.6235,-1.6235,0,-1.6002,-1.6019,-1.6036,-1.6059,-1.6065,-1.6073,-1.6093,-1.6102,-1.6115,-1.6129,-1.6133,-1.6153,-1.6168,-1.6184,-1.6204,-1.6212,-1.6225,-1.6229,-1.6219,-1.6221,-1.6223,-1.6222,-1.6226,-1.6227,-1.6232,-1.6232,-1.6232,0,-1.6002,-1.601,-1.6035,-1.6043,-1.6054,-1.6068,-1.6078,-1.6096,-1.6106,-1.6126,-1.6133,-1.6149,-1.6163,-1.6186,-1.6202,-1.6218,-1.6223,-1.6223,-1.6225,-1.6221,-1.6223,-1.6222,-1.6223,-1.6222,-1.6222,-1.6222,-1.6222,0,-1.5999,-1.6007,-1.6022,-1.6039,-1.6051,-1.6065,-1.608,-1.6086,-1.6107,-1.6117,-1.6133,-1.6144,-1.6165,-1.6181,-1.6199,-1.6209,-1.6219,-1.6221,-1.6222,-1.6218,-1.6212,-1.6215,-1.6217,-1.6221,-1.6221,-1.6221,-1.6221,-1.6221,-1.5995,-1.6003,-1.6022,-1.6037,-1.605,-1.6064,-1.6074,-1.6088,-1.6101,-1.612,-1.613,-1.6145,-1.6162,-1.6187,-1.6198,-1.621,-1.6213,-1.6215,-1.6216,-1.6216,-1.6215,-1.621,-1.6213,-1.6214,-1.6214,-1.6214,-1.6214,0,-1.5993,-1.6006,-1.602,-1.604,-1.6053,-1.6061,-1.6078,-1.6087,-1.6101,-1.6117,-1.613,-1.6149,-1.6164,-1.6181,-1.6198,-1.6204,-1.6209,-1.6208,-1.6208,-1.621,-1.6211,-1.6209,-1.6204,-1.6204,-1.6204,-1.6204,-1.6204,-1.6204,-1.5993,-1.6008,-1.6018,-1.6039,-1.6052,-1.6068,-1.6077,-1.6089,-1.6102,-1.6122,-1.6135,-1.6146,-1.6162,-1.618,-1.6194,-1.6199,-1.6204,-1.6202,-1.6208,-1.6209,-1.621,-1.6211,-1.6208,-1.6203,-1.6203,-1.6206,-1.6206,-1.6206]},{"header":{"parameterUnit":"m.s-1","parameterCategory":1,"la1":30.2991,"la2":30.254,"lo1":-89.0895,"lo2":-89.0444,"dy":0.0017,"dx":0.0017,"nx":28,"ny":28,"refTime":"2025-02-10T09:00:00:Z","depth":0,"parameterNumber":3,"parameterNumberName":"V-component_of_WINDS"},"data":[0,0,0,0,0,0,0,0,0,0,0,0,0,0,0,0,0,0,0,0,0,0,0,0,0,0,0,0,0,0,0,0,0,0,0,0,0,0,0,0,0,0,0,0,0,0,0,0,0,0,0,0,0,0,0,0,0,0,4.5992,4.5993,0,4.6129,4.613,4.6132,4.6155,4.6154,4.6153,4.6152,4.6291,4.6296,4.63,0,0,0,0,0,0,0,0,0,0,0,0,0,4.5751,4.5756,4.5992,4.5993,4.5995,4.6129,4.613,4.6132,4.6155,4.6154,4.6152,4.6151,4.6289,4.6295,4.6301,0,0,0,0,0,0,0,0,0,0,0,0,0,4.5869,4.5757,4.5991,4.6023,4.6027,4.6128,4.613,4.6133,4.6156,4.6154,4.6152,4.615,4.6287,4.6294,4.6302,4.6381,0,0,4.6323,4.6327,0,0,0,0,0,0,0,0,4.5862,4.5878,4.6016,4.6021,4.6026,4.6123,4.6097,4.6216,4.6156,4.6107,4.6152,4.615,4.6236,4.6248,4.6277,4.6387,4.6393,4.6324,4.6328,4.6332,4.6334,0,0,0,0,0,0,0,4.5854,4.5872,4.6046,4.6018,4.6024,4.603,4.6045,4.6119,4.618,4.6111,4.6113,4.6129,4.6239,4.627,4.6281,4.6395,4.6324,4.633,4.6335,4.6338,4.6582,4.6584,0,0,0,0,0,0,4.584,4.5865,4.6042,4.605,4.5938,4.6036,4.6053,4.6094,4.6179,4.619,4.613,4.6129,4.6259,4.6272,4.6286,4.6387,4.6332,4.6338,4.6342,4.6579,4.6582,4.6584,0,0,0,0,0,0,4.5835,4.5856,4.6036,4.5958,4.5982,4.6042,4.6088,4.6097,4.6129,4.6194,4.6204,4.6151,4.6258,4.6275,4.6358,4.6392,4.6341,4.6348,4.6577,4.658,4.6583,4.6588,0,0,0,0,0,0,4.5828,4.5854,4.5884,4.5959,4.5986,4.6106,4.609,4.6101,4.6141,4.6142,4.6216,4.6227,4.6258,4.6347,4.6365,4.6401,4.6354,4.6574,4.6578,4.6582,4.6585,4.6591,4.6596,0,0,0,0,0,4.5819,4.5879,4.5885,4.5906,4.6025,4.6107,4.6123,4.6158,4.6144,4.6175,4.6218,4.6225,4.6385,4.6355,4.6376,4.6414,4.6572,4.6577,4.6582,4.6583,4.659,4.6596,0,0,0,0,0,0,4.5805,4.5889,4.5897,4.5982,4.6038,4.6111,4.6152,4.6164,4.6224,4.6221,4.6262,4.6278,4.6359,4.6395,4.636,4.6498,4.6478,4.6487,4.6471,4.6479,4.6484,4.6474,4.636,0,0,0,0,0,4.5812,4.5872,4.5942,4.6011,4.6038,4.609,4.6128,4.615,4.6209,4.6232,4.628,4.6337,4.6401,4.6441,4.6503,4.659,4.6609,4.6627,4.6633,4.6637,4.6645,4.6697,4.6707,4.66,4.66,4.66,0,0,4.5827,4.588,4.5915,4.6009,4.6055,4.6117,4.611,4.6175,4.6222,4.6242,4.6324,4.6361,4.6427,4.6513,4.6554,4.6545,4.6678,4.6643,4.6646,4.6652,4.6703,4.6713,4.6722,4.6604,4.6603,4.6603,0,0,4.5886,4.5931,4.5995,4.6042,4.6111,4.6146,4.6161,4.6234,4.626,4.6343,4.636,4.6416,4.6524,4.6572,4.661,4.6691,4.6701,4.671,4.6739,4.6789,4.6798,4.6805,4.6837,4.6847,4.6717,4.6717,4.6717,0,4.5895,4.599,4.6026,4.6092,4.6134,4.6156,4.6222,4.6265,4.6351,4.638,4.637,4.6508,4.6554,4.6653,4.6674,4.6703,4.6723,4.6702,4.6794,4.6802,4.6809,4.684,4.6851,4.6718,4.6718,4.6718,4.6718,0,4.5999,4.6065,4.6108,4.6193,4.6239,4.6304,4.6352,4.6395,4.6414,4.645,4.6536,4.6592,4.6667,4.6692,4.671,4.6795,4.6789,4.6785,4.6767,4.682,4.6849,4.6861,4.6719,4.6719,4.6719,4.6719,0,0,4.6052,4.6158,4.6173,4.6214,4.6293,4.6345,4.6412,4.6487,4.6525,4.6584,4.6643,4.6735,4.6734,4.6777,4.6801,4.6845,4.691,4.6838,4.684,4.6851,4.701,4.7013,4.7026,4.6916,4.6919,4.6921,4.7005,0,4.6122,4.6244,4.628,4.6383,4.6445,4.6469,4.6528,4.6584,4.662,4.6679,4.6719,4.6785,4.6777,4.6804,4.6848,4.6892,4.6942,4.6886,4.6973,4.6976,4.6958,4.7041,4.7044,4.7121,4.7017,4.7019,4.702,0,4.622,4.6283,4.6392,4.6468,4.6495,4.6548,4.6621,4.6676,4.6741,4.6765,4.6815,4.6836,4.6909,4.6886,4.6988,4.695,4.6987,4.7015,4.7019,4.7029,4.7002,4.7056,4.7146,4.7159,4.7038,4.7037,4.7035,0,4.6251,4.6363,4.6444,4.6477,4.6566,4.6603,4.6642,4.6705,4.6749,4.6812,4.6842,4.6913,4.6952,4.7007,4.7048,4.7026,4.7148,4.7127,4.7171,4.717,4.7196,4.7194,4.7296,4.7217,4.7217,4.7217,4.7216,0,4.6327,4.6393,4.6459,4.6509,4.6585,4.6627,4.6701,4.6741,4.6798,4.6857,4.688,4.6935,4.6984,4.7046,4.7078,4.716,4.7177,4.7199,4.7207,4.7198,4.7196,4.7224,4.7221,4.722,4.7219,4.7218,4.7218,0,4.6374,4.6421,4.6511,4.6589,4.661,4.6663,4.673,4.678,4.6818,4.6892,4.6912,4.6972,4.7046,4.7092,4.7186,4.7207,4.7298,4.7303,4.7277,4.7281,4.7323,4.7319,4.7448,4.7469,4.7374,4.7375,4.7376,0,4.642,4.6472,4.6557,4.6598,4.6638,4.6704,4.675,4.6793,4.684,4.692,4.6961,4.7037,4.71,4.7218,4.727,4.7343,4.7351,4.7392,4.7362,4.7353,4.7355,4.7352,4.7359,4.7397,4.7398,4.7398,4.7399,0,4.6498,4.6519,4.6584,4.6658,4.6712,4.6772,4.6832,4.6865,4.6919,4.697,4.7047,4.7097,4.7194,4.727,4.7348,4.7389,4.7404,4.7408,4.7422,4.7414,4.7398,4.741,4.7292,4.7405,4.7404,4.7404,4.7403,4.7403,4.6548,4.6597,4.6665,4.6737,4.6787,4.6843,4.6895,4.6941,4.7006,4.7089,4.7111,4.7192,4.7259,4.7366,4.7408,4.7473,4.7468,4.7488,4.7493,4.7498,4.7501,4.7386,4.7487,4.7487,4.7487,4.7487,4.7487,0,4.6629,4.6675,4.6741,4.6825,4.6882,4.6892,4.696,4.7007,4.7079,4.714,4.7203,4.7293,4.7368,4.7427,4.7504,4.7545,4.7555,4.7564,4.7563,4.7573,4.75,4.7481,4.7556,4.7556,4.7556,4.7556,4.7556,4.7556,4.6678,4.6762,4.6792,4.6902,4.6947,4.7028,4.7066,4.7119,4.7169,4.7269,4.7331,4.737,4.7431,4.7513,4.7583,4.7599,4.7627,4.7636,4.7653,4.7585,4.7577,4.757,4.7553,4.7642,4.7642,4.7721,4.7722,4.7722]}]]